Regional Weather Roundup
Issued by NWS Upton, NY

Current Version | Previous Version | Graphics & Text | Print | Product List | Glossary On
Versions: 1 2 3 4 5 6 7 8 9 10 11 12 13 14 15 16 17 18 19 20 21 22 23 24 25 26 27 28 29 30 31 32 33 34 35 36 37 38 39 40 41 42 43 44 45 46 47 48 49 50
000
ASUS41 KOKX 182211
RWROKX

Regional Weather Roundup
National Weather Service New York NY
500 PM EST THU JAN 18 2018

Note: "FAIR" indicates few or no clouds below 12,000 feet with no
significant weather and/or obstructions to visibility.

NYZ071-072-176-178-NJZ106-104-182300-
New York City Metro Area

CITY           SKY/WX    TMP DP  RH WIND       PRES   REMARKS
Central Park   FAIR      31  11  43 NW10G20   29.96R WCI  22
Bronx Bot Gard   N/A     32  12  43 W6        29.94F WCI  26
Bronx Lehman C   N/A     32  12  43 NW10        N/A  WCI  24
LaGuardia Arpt FAIR      32  14  47 NW16G24   29.94R WCI  21
Queens College   N/A     32  12  43 NW14G25     N/A  WCI  22
Kennedy Intl   FAIR      32  12  43 NW15      29.96R WCI  22
Breezy Point     N/A    N/A N/A N/A NW10G16     N/A
Brooklyn Coll    N/A     32  12  43 NW12        N/A  WCI  23
Staten Island    N/A     32  12  43 NW10        N/A  WCI  24
Newark/Liberty FAIR      31  11  43 NW12G25   29.96R WCI  22
Teterboro      FAIR      31  12  45 NW15G26   29.95R WCI  20
$$

NYZ177-179-078>081-182300-
Long Island New York

CITY           SKY/WX    TMP DP  RH WIND       PRES   REMARKS
Jones Beach      N/A     32 N/A N/A NW14        N/A  WCI  22
Wantagh          N/A     32  12  43 NW6         N/A  WCI  26
Matinecock Pt    N/A     32 N/A N/A N13         N/A  WCI  22
Farmingdale    FAIR      30  12  47 N6        29.95R WCI  24
MacArthur/ISP  FAIR      29  13  51 NW12      29.94R WCI  19
Shirley        FAIR      28  15  58 NW10      29.95R WCI  19
Mt Sinai Harb    N/A    N/A N/A N/A NW9         N/A
Westhampton    FAIR      29  13  51 NW8G17    29.94R WCI  21
East Hampton   FAIR      29  14  54 NW5       29.92R WCI  24
Southold         N/A     32  16  51 NW10        N/A  WCI  24
Montauk          N/A     33  15  47 NW9       29.92R WCI  25
$$

NYZ052-065-067-182300-
Hudson Valley

CITY           SKY/WX    TMP DP  RH WIND       PRES   REMARKS
White Plains   FAIR      26  12  55 NW12      29.92R WCI  16
Larchmont Harb   N/A    N/A N/A N/A NW8         N/A
Croton On Huds   N/A    N/A N/A N/A N6G12       N/A
Somers           N/A     25  14  63 N3          N/A
Brewster         N/A     25  14  63 N7          N/A  WCI  17
Newburgh       CLEAR     23  16  74 CALM      29.95R
Montgomery     FAIR      21  11  65 NE6       29.94R WCI  13
Otisville        N/A     27  14  59 NW8         N/A  WCI  18
Warwick          N/A     27  12  54 NW10        N/A  WCI  17
Suffern          N/A     28  12  50 NW6         N/A  WCI  22
Poughkeepsie   FAIR      24  12  60 N3        29.96R
Albany         FAIR      23  11  60 NW14G22   29.98S WCI  11
$$

NJZ001-105-106-008-010-013-015-019>022-104-182300-
New Jersey

CITY           SKY/WX    TMP DP  RH WIND       PRES   REMARKS
Newark/Liberty FAIR      31  11  43 NW12G25   29.96R WCI  22
Teterboro      FAIR      31  12  45 NW15G26   29.95R WCI  20
Caldwell       FAIR      28  11  48 NW8       29.97R WCI  20
Somerville     FAIR      29  12  49 NW8       29.96R WCI  21
Linden         FAIR      31  10  41 NW12      29.97R WCI  22
Perth Amboy      N/A    N/A N/A N/A W12         N/A
Sussex         FAIR      27  10  49 VRB5      29.96R WCI  22
Andover          N/A     25  10  53 VRB6      29.96R WCI  18
Trenton        FAIR      30  10  43 NW8       29.98R WCI  22
Millville      FAIR      34  13  41 NW8       30.00R WCI  27
Atlantic City  FAIR      33  10  38 NW10      30.00R WCI  25
Wrightstown    FAIR      29  12  48 NW13      29.95S WCI  19
Toms River     FAIR      30  12  47 NW12      29.99R WCI  20
Belmar         FAIR      29  11  47 W12       29.98R WCI  19
$$

PAZ047>061-062-071-182300-
Eastern Pennsylvania

CITY           SKY/WX    TMP DP  RH WIND       PRES   REMARKS
Philadelphia   FAIR      34   9  35 VRB6      30.01R WCI  29
Allentown      FAIR      28  10  46 NW7       29.99R WCI  21
Scranton       FAIR      23  10  57 NW7       29.97R WCI  15
$$

CTZ002-004>006-009-010-012-RIZ004-006-007-MAZ004-011-015-182300-
Southern New England

 In CT

CITY           SKY/WX    TMP DP  RH WIND       PRES   REMARKS
Bradley Intl   FAIR      25  14  63 NW12      29.93R WCI  14
Hartford       FAIR      28  14  55 NW13      29.94R WCI  17
Danbury        FAIR      26  12  55 N7        29.94R WCI  18
Wtrbury/Oxford FAIR      24  14  65 NW10G20   29.90R WCI  14
Norwalk Harbor   N/A    N/A N/A N/A NW12        N/A
Bridgeport     FAIR      29  12  49 N13       29.95R WCI  19
Meriden        FAIR      27  13  55 VRB7G21   29.94R WCI  19
New Haven      FAIR      30  13  49 NW12      29.93R WCI  20
Chester        FAIR      28  12  50 NW7       29.89R WCI  21
Groton         FAIR      30  13  49 N8        29.91R WCI  22
Willimantic    FAIR      28  15  58 NW8       29.91R WCI  20

 In RI

CITY           SKY/WX    TMP DP  RH WIND       PRES   REMARKS
Providence     FAIR      29  16  58 NW9       29.90R WCI  20
Block Island   FAIR      31  17  56 NW9       29.89R WCI  23
Westerly       FAIR      31  16  54 NW9       29.91R WCI  23

In MA

CITY           SKY/WX    TMP DP  RH WIND       PRES   REMARKS
Boston         FAIR      29  16  58 NW10      29.89R WCI  20
Worcester      CLOUDY    24  15  68 NW6       29.84R WCI  17
Westfield      FAIR      25  14  63 NW8       29.92R WCI  16
Provincetown   CLOUDY    30  23  75 MISG        N/A
Nantucket      FAIR      29  22  75 N13       29.81S WCI  19
$$

ANZ330-335-338-340-345-350-353-355-182300-
Coastal Marine Observations


STATION/POSITION TIME  SKY/WX   TEMP    WIND        PRES    VSBY  WAVE
                                AIR SEA DIR/SP/G                  HT/PER
                 (UTC)          (F)     (DEG/KT/KT) (MB)    (MI)  (FT/S)
NY Harb Entrance NOT AVBL
20 S Fire Island NOT AVBL
15 E Barnegat Li 2130               43                N/A           4/ 5
Hudson Canyon    2050            35 51  310/ 19/ 23 1013.0          6/ 6
Kings Point      2148            31 32  360/ 14/ 16 1014.9
Execution Rocks  NOT AVBL
Western LI Sound NOT AVBL
Central LI Sound 2130            31     310/ 16/ 19   N/A           2
Robbins Reef     2148            32     300/ 16/ 19 1014.7
$$


>>>>>>>>>>>>>>>>>>>>>>>>>>>> KEY <<<<<<<<<<<<<<<<<<<<<<<<<<<
>                                                          <
>     SKY/WX - Sky Condition/Present Weather               <
>     TMP    - Temperature in Fahrenheit                   <
>     DP     - Dew Point in Fahrenheit                     <
>     RH     - Relative Humidity in Percent                <
>     WIND   - Direction (from) and Speed in MPH           <
>     PRES   - Mean Sea Level Pressure (inches of Hg)      <
>     WCI    - Wind Chill Index                            <
>     VSB    - Visibility in Miles                         <
>     HX     - Heat Index                                  <
>     TC     - Temperature in Celsius                      <
>     VRB    - Varibale Wind Direction                     <
>                                                          <
>>>>>>>>>>>>>>>>>>>>>>>>>>>> KEY <<<<<<<<<<<<<<<<<<<<<<<<<<<



USA.gov is the U.S. government's official web portal to all federal, state and local government web resources and services.